Flag for Canada Weather past 2 weeks in Langley, British Columbia, Canada

Now
63 °F

Mild.


Feels Like: 63 °F
Forecast: 60 / 83 °F
Wind: 1 mph from Southeast

Location: P. Meadows Coastal Station

Current Time: Aug 1, 2014 at 7:23:37 AM

Latest Report: Aug 1, 2014 at 7:00 AM


Visibility: N/A

Pressure: 30.05 "Hg

Humidity: 92%

Dew point: 60 °F

Location of LangleyLocation

Historic Weather in Langley — Graph

°F

Langley temperature yesterday

Maximum temperature yesterday: 87 °F (at 5:00 PM)
Minimum temperature yesterday: 59 °F (at 6:00 AM)
Average temperature yesterday: 72 °F

Past Weeks' High & Low Weather Summary

 TemperatureHumidityPressure
High87 °F (Jul 31, 5:00 PM)97% (Jul 27, 6:00 AM)30.21 "Hg (Jul 27, 6:00 AM)
Low52 °F (Jul 22, 5:00 AM)31% (Jul 28, 5:00 PM)29.89 "Hg (Jul 19, 9:00 PM)
Average66 °F72%30.05 "Hg
* Reported Jul 17 6:00 AM — Aug 1 6:00 AM, Langley, Weather by CustomWeather, © 2014

Note: Actual official high and low records may vary slightly from our data, if they occured in-between our weather recording intervals... More about our weather records

Advertising

Langley weather history for previous 24 hours

 ConditionsComfort  
Time TempWeatherWind HumidityBarometerVisibility
6:00 AM
Aug 1
59 °FCool.No wind93%30.04 "HgN/A
5:00 AM59 °FCool.1 mph94%30.03 "HgN/A
4:00 AM61 °FCool.No wind95%30.03 "HgN/A
3:00 AM61 °FCool.1 mph96%30.03 "HgN/A
2:00 AM62 °FCool.No wind92%30.03 "HgN/A
1:00 AM64 °FMild.2 mph87%30.03 "HgN/A
12:00 AM66 °FMild.2 mph82%30.02 "HgN/A
11:00 PM
Jul 31
67 °FMild.1 mph78%30.01 "HgN/A
10:00 PM70 °FMild.2 mph69%30.01 "HgN/A
9:00 PM75 °FMild.3 mph58%30.01 "HgN/A
8:00 PM80 °FWarm.2 mph48%30.00 "HgN/A
7:00 PM84 °FWarm.5 mph43%30.00 "HgN/A
6:00 PM85 °FPleasantly warm.6 mph38%30.01 "HgN/A
5:00 PM87 °FPleasantly warm.5 mph37%30.02 "HgN/A
4:00 PM85 °FPleasantly warm.6 mph39%30.04 "HgN/A
3:00 PM84 °FWarm.7 mph42%30.05 "HgN/A
2:00 PM83 °FWarm.7 mph45%30.07 "HgN/A
1:00 PM82 °FWarm.6 mph45%30.08 "HgN/A
12:00 PM80 °FWarm.2 mph49%30.09 "HgN/A
11:00 AM75 °FMild.3 mph52%30.10 "HgN/A
10:00 AM72 °FMild.2 mph60%30.11 "HgN/A
9:00 AM69 °FMild.2 mph63%30.12 "HgN/A
8:00 AM66 °FMild.1 mph69%30.14 "HgN/A
7:00 AM63 °FMild.2 mph81%30.13 "HgN/A
Weather by CustomWeather, © 2014

See weather overviewHow to use our weather pages